Weather History for Parsons, KS

Change the Weather History Date:

Thursday, February 16, 2012

  Actual Average Record
Temperature  
Mean Temperature 42 °F -  
Max Temperature 53 °F 45 °F 74 °F (1976)
Min Temperature 30 °F 25 °F 0 °F (1979)
Degree Days  
Heating Degree Days 24    
Moisture  
Dew Point 33 °F    
Average Humidity 78    
Maximum Humidity 93    
Minimum Humidity 45    
Precipitation  
Precipitation 0.00 in - - ()
Sea Level Pressure  
Sea Level Pressure 30.25 in    
Wind  
Wind Speed 8 mph (North)    
Max Wind Speed 16 mph    
Max Gust Speed -    
Visibility 6 miles    
Events      
Averages and records for this station are not official NWS values.
T = Trace of Precipitation, MM = Missing Value Source: NWS Daily Summary

Daily Weather History Graph

Daily Weather History Graph

Search for Another Location

Airport:

Trip Planner

Search our weather history database for the weather conditions in past years. The results will help you decide how hot, cold, wet, or windy it might be!

Date:

Astronomy

Feb. 16, 2012 Rise Set
Actual Time 7:10 AM CST 6:02 PM CST
Civil Twilight 6:43 AM CST 6:28 PM CST
Nautical Twilight 6:13 AM CST 6:59 PM CST
Astronomical Twilight 5:43 AM CST 7:29 PM CST
Moon 3:02 AM CST (2/16) 12:59 PM CST (2/16)
Length of Visible Light 11h 45m
Length of Day
10h 51m
Waning Crescent, 28% of the Moon is Illuminated
Feb 16
Waning Crescent
Feb 21
New
Feb 29
First Quarter
Mar 8
Full
Mar 14
Last Quarter

Hourly Weather History & Observations

Time (CST) Temp. Windchill Dew Point Humidity Pressure Visibility Wind Dir Wind Speed Gust Speed Precip Events Conditions
12:52 AM 43.0 °F 35.4 °F 41.0 °F 93% 30.12 in 5.0 mi NNW 16.1 mph - N/A   Overcast
1:31 AM 42.8 °F 35.8 °F 39.2 °F 87% 30.14 in 4.0 mi NNW 13.8 mph - N/A   Overcast
1:52 AM 43.0 °F 36.4 °F 39.0 °F 86% 30.16 in 4.0 mi NNW 12.7 mph - N/A   Overcast
2:09 AM 42.8 °F 36.6 °F 39.2 °F 87% 30.16 in 4.0 mi NNW 11.5 mph - N/A   Overcast
2:44 AM 42.8 °F 35.8 °F 37.4 °F 81% 30.17 in 4.0 mi NNW 13.8 mph - N/A   Overcast
2:52 AM 42.1 °F 34.9 °F 37.9 °F 85% 30.17 in 4.0 mi North 13.8 mph - N/A   Overcast
3:52 AM 37.9 °F 31.5 °F 35.1 °F 89% 30.18 in 4.0 mi North 9.2 mph - N/A   Clear
4:52 AM 36.0 °F 30.3 °F 33.1 °F 89% 30.22 in 4.0 mi North 6.9 mph - N/A   Clear
6:52 AM 32.0 °F - 30.0 °F 92% 30.28 in 3.0 mi Calm Calm - N/A   Clear
7:07 AM 30.2 °F - 28.4 °F 93% 30.27 in 2.0 mi Calm Calm - N/A   Clear
7:21 AM 30.2 °F - 28.4 °F 93% 30.28 in 1.5 mi Calm Calm - N/A   Clear
7:29 AM 30.2 °F - 28.4 °F 93% 30.28 in 1.2 mi Calm Calm - N/A   Clear
7:36 AM 30.2 °F - 28.4 °F 93% 30.29 in 1.0 mi Calm Calm - N/A   Clear
7:52 AM 30.9 °F - 28.9 °F 92% 30.31 in 1.0 mi Calm Calm - N/A   Clear
8:11 AM 33.8 °F 30.8 °F 30.2 °F 87% 30.29 in 1.5 mi North 3.5 mph - N/A   Clear
8:18 AM 35.6 °F 31.7 °F 32.0 °F 87% 30.30 in 3.0 mi North 4.6 mph - N/A   Clear
8:52 AM 37.0 °F 30.4 °F 33.1 °F 86% 30.32 in 5.0 mi North 9.2 mph - N/A   Clear
9:52 AM 42.1 °F 38.4 °F 34.0 °F 73% 30.34 in 8.0 mi NE 5.8 mph - N/A   Clear
10:52 AM 46.0 °F 42.5 °F 33.1 °F 61% 30.33 in 10.0 mi Variable 6.9 mph - N/A   Clear
11:52 AM 46.9 °F - 34.0 °F 61% 30.32 in 10.0 mi Variable 4.6 mph - N/A   Clear
12:52 PM 50.0 °F - 33.1 °F 52% 30.30 in 10.0 mi Variable 6.9 mph - N/A   Clear
1:52 PM 51.1 °F - 34.0 °F 52% 30.29 in 10.0 mi Variable 5.8 mph - N/A   Clear
2:52 PM 52.0 °F - 33.1 °F 49% 30.25 in 10.0 mi Calm Calm - N/A   Clear
3:52 PM 52.0 °F - 32.0 °F 47% 30.25 in 10.0 mi Variable 4.6 mph - N/A   Clear
4:52 PM 53.1 °F - 32.0 °F 45% 30.26 in 10.0 mi Calm Calm - N/A   Clear
5:52 PM 48.9 °F - 30.9 °F 50% 30.24 in 10.0 mi Calm Calm - N/A   Clear
6:52 PM 41.0 °F - 32.0 °F 70% 30.25 in 10.0 mi Calm Calm - N/A   Clear
7:52 PM 37.9 °F - 30.9 °F 76% 30.26 in 10.0 mi Calm Calm - N/A   Clear
8:52 PM 35.1 °F - 30.0 °F 82% 30.26 in 10.0 mi Calm Calm - N/A   Clear
9:52 PM 34.0 °F - 30.9 °F 89% 30.24 in 10.0 mi Calm Calm - N/A   Clear
10:52 PM 35.1 °F - 32.0 °F 89% 30.25 in 10.0 mi Calm Calm - N/A   Clear
11:52 PM 34.0 °F - 30.9 °F 89% 30.24 in 10.0 mi Calm Calm - N/A   Clear